GOES 1 (SMS-C) [-]

Last updated on July 6, 2021, 3:23 p.m. UTC

1 08366U 75100A   21186.67320655  .00000060  00000-0  00000-0 0  9994
2 08366   9.0975 300.1484 0000813 213.9905 244.7477  1.00288565166942
UTC
Height (km)
Latitude
Longitude
Inclination
Orbital Period
UTC large
Height (km)
Speed (km/s)
/
Latitude / Longitude
Inclination (degrees)
Orbital Period (minutes)
Azimuth
Elevation
Range (km)
Doppler Factor
iOS Compass Heading
iOS Angle